Location: Karcze
(52.0945°N, 22.4786°E)
Time: 07:45:39
(UTC+00:00)

Transit 2A Rocket - Pass Details

Date: 03 August 2021
Orbit: 586 x 917 km, 66.7° (Epoch: 24 September)

Event Time Altitude Azimuth Distance (km) Brightness Sun altitude
Rises 15:54:24 0° 294° (WNW) 3,028 9.3 20.0°
Reaches altitude 10° 15:57:30 10° 316° (NW) 2,179 8.2 19.5°
Maximum altitude 16:00:38 16° 355° (N) 1,848 7.2 19.0°
Drops below altitude 10° 16:03:55 10° 34° (NNE) 2,321 7.3 18.5°
Sets 16:07:23 0° 55° (NE) 3,324 7.9 18.0°
